MDT,Max TemperatureF,Mean TemperatureF,Min TemperatureF,Max Dew PointF,MeanDew PointF,Min DewpointF,Max Humidity, Mean Humidity, Min Humidity, Max Sea Level PressureIn, Mean Sea Level PressureIn, Min Sea Level PressureIn, Max VisibilityMiles, Mean VisibilityMiles, Min VisibilityMiles, Max Wind SpeedMPH, Mean Wind SpeedMPH, Max Gust SpeedMPH,PrecipitationIn, CloudCover, Events, WindDirDegrees
2013-3-1,45,33,20,25,21,15,74,53,31,30.38,30.31,30.26,10,10,10,17,7,23,0.00,7,,301
2013-3-2,61,46,31,29,27,23,75,49,23,30.27,30.15,29.94,10,10,10,26,11,35,0.00,0,,294
2013-3-3,64,48,32,31,28,23,75,51,26,29.90,29.67,29.52,10,10,10,32,17,43,0.00,1,,287
2013-3-4,37,28,18,22,12,5,66,47,27,30.35,30.00,29.71,10,10,10,32,17,50,0.00,4,,327
2013-3-5,43,27,10,14,9,5,83,54,24,30.44,30.31,30.18,10,10,10,15,7,20,0.00,0,,111
2013-3-6,65,42,18,24,18,12,80,48,16,30.17,29.95,29.77,10,10,10,26,12,32,0.00,0,,120
2013-3-7,65,42,19,26,22,18,92,55,18,30.01,29.93,29.83,10,10,10,24,8,30,0.00,1,,76
2013-3-8,47,35,23,28,26,21,96,73,49,30.02,29.90,29.75,10,10,10,18,8,23,0.00,1,,88
2013-3-9,43,35,26,31,25,12,100,67,33,30.14,29.86,29.69,10,6,1,40,17,56,0.09,7,Snow,345
2013-3-10,49,34,18,21,14,6,92,56,19,30.24,30.12,30.00,10,10,10,28,11,35,0.00,1,,337
2013-3-11,42,34,25,31,25,15,92,69,45,30.21,30.02,29.92,10,8,1,28,9,37,0.01,6,Rain-Snow,336
2013-3-12,46,34,21,26,19,13,92,60,28,30.38,30.29,30.23,10,10,10,20,8,25,0.00,2,,302
2013-3-13,66,43,20,30,24,18,92,56,20,30.27,30.17,30.08,10,10,7,18,7,24,0.00,0,,308
2013-3-14,72,52,32,30,26,21,75,46,16,30.23,30.10,29.96,10,10,10,18,6,26,0.00,0,,294
2013-3-15,74,56,37,30,24,14,70,40,10,29.94,29.82,29.73,10,10,10,29,11,38,T,2,,341
2013-3-16,60,45,29,33,30,25,79,57,31,30.01,29.87,29.70,10,10,10,29,12,39,T,5,,108
2013-3-17,60,42,24,29,21,-1,100,56,12,29.87,29.62,29.45,10,8,1,51,17,68,T,4,Snow,260
2013-3-18,43,30,17,19,13,6,81,53,25,30.01,29.93,29.83,10,10,10,22,8,26,0.00,3,,339
2013-3-19,45,31,16,27,20,10,92,59,25,30.43,30.14,29.94,10,9,1,37,13,51,T,4,Snow,322
2013-3-20,58,34,10,37,20,8,92,55,17,30.40,30.03,29.68,10,10,6,33,10,44,0.01,2,Rain,147
2013-3-21,52,39,26,36,27,21,85,65,44,29.88,29.65,29.50,10,10,4,35,10,44,0.04,3,Rain,9
2013-3-22,47,35,23,25,18,8,88,56,24,30.01,29.88,29.78,10,10,10,23,9,30,0.00,4,,321
2013-3-23,32,22,12,18,9,4,77,54,31,30.32,30.17,29.98,10,10,10,25,14,32,T,5,,358
2013-3-24,32,20,8,13,6,-1,83,56,29,30.37,30.27,30.21,10,10,10,32,11,44,0.00,4,,323
2013-3-25,42,23,4,10,3,-5,83,49,14,30.45,30.34,30.25,10,10,10,14,6,24,0.00,1,,347
2013-3-26,55,34,12,31,14,4,82,51,19,30.24,30.06,29.94,10,10,10,17,7,33,0.00,2,,267
2013-3-27,59,42,24,37,25,16,76,53,30,30.11,30.03,29.97,10,10,10,17,5,23,T,3,,122
2013-3-28,66,45,24,30,22,14,92,53,14,30.09,30.03,29.99,10,10,10,20,8,25,0.00,0,,11
2013-3-29,70,49,28,32,25,19,69,45,20,30.08,30.01,29.93,10,10,10,31,7,39,T,4,Rain,279
2013-3-30,51,40,29,37,32,27,85,68,50,30.18,30.10,30.01,10,10,10,26,8,33,T,4,Rain,308
2013-3-31,66,43,20,28,23,17,100,58,16,30.18,30.04,29.91,10,10,10,35,10,40,0.00,0,,355